Home > Weather > Stockton > Past weeks

Flag for USA Past Weather in Stockton, California, USA — Yesterday and Last 2 Weeks

Now
99 °F

Sunny.


Feels Like: 95 °F
Forecast: 66 / 103 °F
Wind: 9 mph from Northwest

Location: Stockton Metropolitan Airport

Current Time: Jul 29, 2016 at 2:45:33 PM

Latest Report: Jul 29, 2016 at 1:55 PM


Visibility: 10 mi

Pressure: 29.77 "Hg

Humidity: 16%

Dew Point: 46 °F

Location of StocktonLocation

Past Weather in Stockton — Graph

°F

Stockton Temperature Yesterday

Maximum temperature yesterday: 103 °F (at 3:55 PM)
Minimum temperature yesterday: 68 °F (at 5:55 AM)
Average temperature yesterday: 84 °F

High & Low Weather Summary for the Past Weeks

 TemperatureHumidityPressure
High105 °F (Jul 26, 4:55 PM)84% (Jul 17, 5:55 AM)30.09 "Hg (Jul 17, 5:55 AM)
Low54 °F (Jul 22, 5:55 AM)10% (Jul 26, 4:55 PM)29.75 "Hg (Jul 28, 6:55 PM)
Average79 °F41%29.89 "Hg
* Reported Jul 14 12:55 PM — Jul 29 12:55 PM, Stockton, Weather by CustomWeather, © 2016

Note: Actual official high and low records may vary slightly from our data, if they occured in-between our weather recording intervals... More about our weather records

Advertising

Stockton Weather History for the Previous 24 Hours

Scroll right to see more
 ConditionsComfort  
Time TempWeatherWind HumidityBarometerVisibility
12:55 PM
Fri, Jul 29
96 °FSunny.7 mph23%29.78 "Hg10 mi
11:55 AM95 °FSunny.5 mph19%29.80 "Hg10 mi
10:55 AM90 °FSunny.5 mph24%29.81 "Hg10 mi
9:55 AM84 °FSunny.5 mph33%29.81 "Hg10 mi
8:55 AM80 °FSunny.6 mph41%29.82 "Hg10 mi
7:55 AM74 °FSunny.5 mph53%29.81 "Hg10 mi
6:55 AM69 °FClear.7 mph63%29.80 "Hg10 mi
5:55 AM67 °FClear.5 mph59%29.78 "Hg10 mi
4:55 AM67 °FClear.No wind57%29.78 "Hg10 mi
3:55 AM69 °FClear.3 mph55%29.77 "Hg10 mi
2:55 AM71 °FClear.5 mph51%29.77 "Hg10 mi
1:55 AM72 °FClear.5 mph52%29.77 "Hg10 mi
12:55 AM73 °FClear.N/A51%29.78 "Hg10 mi
11:55 PM
Thu, Jul 28
74 °FClear.6 mph46%29.78 "Hg10 mi
10:55 PM77 °FClear.5 mph44%29.79 "Hg10 mi
9:55 PM81 °FClear.6 mph35%29.79 "Hg10 mi
8:55 PM86 °FSunny.9 mph29%29.78 "Hg10 mi
7:55 PM93 °FSunny.7 mph20%29.77 "Hg10 mi
6:55 PM100 °FSunny.9 mph15%29.75 "Hg10 mi
5:55 PM102 °FSunny.14 mph10%29.76 "Hg10 mi
4:55 PM103 °FSunny.10 mph14%29.76 "Hg10 mi
3:55 PM103 °FSunny.7 mph15%29.78 "Hg10 mi
2:55 PM101 °FSunny.7 mph15%29.80 "Hg10 mi
Weather by CustomWeather, © 2016

See weather overviewHow to use our weather pages